Location: Innerarity Island Observatory
(30.3139°N, 87.4867°W)
Time: 14:53:24
(UTC-05:00)

JAS-2 - Visible Passes

Search period start: 30 September 2014 00:00
Search period end: 10 October 2014 00:00
Orbit: 800 x 1322 km, 98.5° (Epoch: 30 September)

Date Brightness Start Highest point End Pass type
(mag) Time Alt. Az. Time Alt. Az. Time Alt. Az.
30 Sep 10.9 06:07:04 10° NNE 06:13:47 53° E 06:21:10 10° S visible
01 Oct 12.6 05:13:54 10° NE 05:18:43 19° E 05:23:45 10° SE visible
01 Oct 11.7 18:50:23 10° SSW 18:54:41 26° W 18:59:04 10° NW visible
02 Oct 11.1 06:02:12 10° NNE 06:08:59 50° E 06:16:21 10° S visible
03 Oct 12.7 05:09:14 10° NE 05:13:53 18° E 05:18:43 10° SE visible
04 Oct 11.2 05:57:21 10° NNE 06:04:11 47° E 06:11:32 10° S visible
05 Oct 12.8 05:04:37 10° ENE 05:09:03 17° E 05:13:37 10° SE visible
06 Oct 11.3 05:52:32 10° NNE 05:59:23 44° E 06:06:42 10° S visible
07 Oct 12.8 05:00:02 10° ENE 05:04:13 16° E 05:08:30 10° SE visible
08 Oct 11.5 05:47:43 10° NNE 05:54:36 42° E 06:01:51 10° SSE visible
09 Oct 12.9 04:55:31 10° ENE 04:59:22 15° E 05:03:19 10° SE visible
